Hlavní strana
METAR-TAF:

METAR-TAF

Letiště :

Springfield-Beckley Municipal Airport

Springfield, Ohio, Spojené státy americké

zeměpisná šířka: 39-50N, zeměpisná délka: 083-50W, výška: 321 m

Aktuální stav počasí

Zpráva byla vytvořena před 15 minutami, v 14:56 UTC
Jihozápadní vítr 11 kt
Teplota 5°C
Vlhkost vzduchu 56%
Tlak 1017 hPa
Viditelnost: 16.1 km
Jasno

METAR: KSGH 031456Z AUTO 23011KT 10SM CLR 05/M03 A3002 RMK AO2 SLP176 6//// T00501033 58003 PNO $

Čas: 10:11 (15:11 UTC)


TAF: chybějící

Stav a předpovědi počasí z více než 4 000 letišť (zprávy METAR a TAF).

Červené a žluté tečky na mapě představují dostupné meteorologické stanice.

Když kurzor umístíte na tečku, zobrazí se název stanice.

Pak kliknutím zobrazíte stav a předpověď počasí.

Chcete-li změnit mapu, kliknutím na zelené tlačítko se znaménkem +mapu přiblížíte, kliknutím na zelené tlačítko se znaménkem – mapu oddálíte a kliknutím na zelené šipky přejdete na sousední mapy.


METAR-TAF: